Location: Gettysburg
(39.8310°N, 77.2310°W)
Time: 10:04:24
(UTC-05:00)

ATLAS 2AS CENTAUR R/B - Visible Passes

Search period start: 11 February 2016 00:00
Search period end: 21 February 2016 00:00
Orbit: 908 x 1304 km, 63.7° (Epoch: 28 January)

Date Brightness Start Highest point End Pass type
(mag) Time Alt. Az. Time Alt. Az. Time Alt. Az.
11 Feb 4.9 05:41:27 10° SSE 05:47:39 31° ESE 05:54:16 10° NE visible
12 Feb 5.5 04:58:35 10° SE 05:03:21 19° ESE 05:08:20 10° ENE visible
13 Feb 3.5 06:01:20 10° SSW 06:08:32 63° ESE 06:16:22 10° NE visible
14 Feb 4.2 05:17:18 10° S 05:23:59 41° ESE 05:31:13 10° NE visible
15 Feb 4.9 04:33:53 10° SSE 04:39:36 25° ESE 04:45:41 10° NE visible
15 Feb 3.0 06:22:29 10° SW 06:29:52 70° NW 06:37:53 10° NNE visible
16 Feb 5.4 03:51:36 10° SE 03:55:23 15° ESE 03:59:17 10° ENE visible
16 Feb 3.1 05:37:42 10° SSW 05:45:02 80° ESE 05:53:03 10° NE visible
17 Feb 3.6 04:53:21 10° S 05:00:23 53° ESE 05:08:02 10° NE visible
18 Feb 4.3 04:09:32 10° S 04:15:55 34° ESE 04:22:46 10° NE visible
18 Feb 3.1 05:59:14 10° SW 06:06:33 56° NW 06:14:27 10° NNE visible
19 Feb 4.9 03:27:23 13° SE 03:31:36 21° ESE 03:36:59 10° ENE visible
19 Feb 2.9 05:14:55 13° SW 05:21:36 82° NW 05:29:40 10° NNE visible
20 Feb 5.3 02:45:18 10° ESE 02:47:25 11° E 02:49:35 10° E visible
20 Feb 3.2 04:32:45 29° SSW 04:36:51 68° ESE 04:44:46 10° NE visible
20 Feb 3.8 06:21:48 10° WSW 06:28:31 33° NW 06:35:38 10° NNE visible
